CZ-6A DEB, 56607

Orbit data source: Space-Track

CZ-6A DEB, 56607 is space debris in SSO originally from a launch on Fri, 11 Nov 2022 UTC launched from the Taiyaun Space Center, China (TSC). Debris objects in space refer to the collection of defunct objects orbiting the Earth. Examples of debris include non-operational satellites, rocket bodies, and fragments generated from explosions, collisions, or faulty payload assembly.

Loading next visibility...
Identifier
56607, 2022-151AEF
Orbit
SSO
Country
Flag of CNCN / PRC
Related business
Manufacturer
SAST
Mission
Spacecraft
Bus & Motor
Unknown
Mass
Unknown
Launch date (UTC)
2022-11-11 (4 years ago)
Launch vehicle
Unknown
Launch site
Taiyaun Space Center, China (TSC)
Object type
Payload
Rocket body
Debris
Shape & HBR
Unknown shape, 0.1 m
Radar Cross Section
Medium (>0.1 m² and <1 m²)

Expand to show TLE details & history
Last TLE update: 14 hours ago

TLE from 14 hours ago
0 CZ-6A DEB
1 56607U 22151AEF 26208.02738548  .00001118  00000-0  41747-3 0  9997
2 56607  98.6885 233.9578 0114589 338.9591  20.6896 14.30347714169802
Epoch: 2026-07-27T00:39Z
TLE epoch observation values (Epoch: 2026-07-27T00:39:26.105Z)
Latitude
-0.0001°
Longitude
-80.61781°
Altitude
716.755 km
Speed
7.537 km/s
True Right ascension
15h 35m 49s
True Declination
0° 00' 00"
Sunlit
Object was in daylight at epoch
Visualization orbit readout
Latitude
Unknown
Longitude
Unknown
Altitude
Unknown
Speed
Unknown
Apparent Right ascension
Unknown
Apparent Declination
Unknown
Sunlit
N/A
Visualization observer readout
Local Sidereal Time
04:14:38
Azimuth
Unknown
Elevation
Unknown
Doppler factor
Unknown
Orbital elements
Apogee altitude
869.825 km
Perigee altitude
705.599 km
Semi-major axis
7,165.849 km
Eccentricity
0.01146
Inclination
98.6885°
RAAN
233.9578°
Arg. of periapsis
338.9591°
True anomaly
21.15981°
Mean anomaly
20.6896°
Eccentric anomaly
20.92407°
Mean motion
3.57801 °/min
Orbital period
100.61 mins
BSTAR
0.00041747
Loading maneuver chart data...
Computing Atmospheric mass density...
Loading historical data...
Loading historical data...
Loading historical data...
Loading historical data...
Loading historical data...
Loading historical data...
Loading historical data...

Documentation

Showing up to 5 results
|